Stations météo

réclame
Mon MeteoGroup
Deelen, Pays-Bas (6275): Température de l'air & dewpoint: 17.11.2017 12:00:00 - 23.11.2017 12:00:00 (CET)Deelen, Pays-Bas (6275): Température de l'air 5cm: 17.11.2017 12:00:00 - 23.11.2017 12:00:00 (CET)Deelen, Pays-Bas (6275): Vitesse du vent & gusts: 17.11.2017 12:00:00 - 23.11.2017 12:00:00 (CET)Deelen, Pays-Bas (6275): Direction du vent: 17.11.2017 12:00:00 - 23.11.2017 12:00:00 (CET)Deelen, Pays-Bas (6275): reduced air pressure: 17.11.2017 12:00:00 - 23.11.2017 12:00:00 (CET)Deelen, Pays-Bas (6275): visibility: 17.11.2017 12:00:00 - 23.11.2017 12:00:00 (CET)Deelen, Pays-Bas (6275): Quantités de précipitations: 17.11.2017 12:00:00 - 23.11.2017 12:00:00 (CET)
Date & Time tt [°C] td [°C] tt 5cm [°C] ff [km/h] ff [knt] fx [km/h] fx [knt] dd ppp [hPa] vv [km] rr [mm]
23.11.2017 12:00:00 12,0 11,0 11,5 31 17 - - SSW 998,8 6 -
23.11.2017 11:00:00 12,6 9,3 11,7 34 18 61 33 SSW 997,9 10 0,3
23.11.2017 10:00:00 13,8 7,2 12,8 31 17 - - S 996,5 10 0,0
23.11.2017 09:00:00 12,9 6,0 12,1 31 17 54 29 S 996,2 10 0,0
23.11.2017 08:00:00 11,9 5,3 11,1 29 16 47 25 S 996,2 10 0,0
23.11.2017 07:00:00 11,9 4,9 11,0 26 14 - - S 996,4 10 0,0
23.11.2017 06:00:00 11,3 4,6 10,6 28 15 43 23 S 996,8 10 0,0
23.11.2017 05:00:00 11,0 4,0 10,1 29 16 43 23 S 997,3 10 0,0
23.11.2017 04:00:00 11,2 4,0 10,0 26 14 - - S 998,0 10 0,0
23.11.2017 03:00:00 10,7 4,0 9,9 26 14 40 21 S 998,3 10 0,0
23.11.2017 02:00:00 9,7 3,8 8,6 21 11 32 18 S 999,0 10 0,0
23.11.2017 01:00:00 9,4 3,6 8,6 22 12 - - S 999,4 10 0,0
23.11.2017 00:00:00 9,3 3,6 8,3 21 11 29 16 S 1000,1 10 0,0
22.11.2017 23:00:00 9,4 3,7 8,5 21 11 32 18 S 1000,7 10 0,0
22.11.2017 22:00:00 9,2 4,1 8,1 16 9 - - S 1001,1 10 0,0
22.11.2017 21:00:00 9,5 4,6 8,6 22 12 32 18 S 1001,3 10 0,0
22.11.2017 20:00:00 9,8 5,1 9,1 26 14 40 21 S 1001,9 10 0,0
22.11.2017 19:00:00 10,5 5,6 9,7 28 15 - - S 1002,2 10 0,0
22.11.2017 18:00:00 11,3 6,4 9,9 22 12 36 19 S 1002,7 10 0,0
22.11.2017 17:00:00 11,1 7,1 10,3 22 12 36 19 S 1003,0 10 0,0
22.11.2017 16:00:00 11,8 7,6 11,3 22 12 - - S 1003,7 10 0,0
22.11.2017 15:00:00 12,4 8,1 12,3 22 12 36 19 S 1004,1 10 0,0
22.11.2017 14:00:00 12,5 8,1 12,8 26 14 40 21 S 1004,9 10 0,0
22.11.2017 13:00:00 11,7 8,0 11,7 26 14 - - SSW 1005,6 10 0,0
22.11.2017 12:00:00 11,2 8,1 11,0 26 14 47 25 SW 1006,2 10 0,0
22.11.2017 11:00:00 11,0 8,2 10,8 31 17 47 25 SSW 1006,2 10 0,0
22.11.2017 10:00:00 10,8 8,1 10,4 28 15 - - SSW 1005,9 10 0,0
22.11.2017 09:00:00 10,8 7,9 10,2 26 14 43 23 SSW 1005,6 10 0,0
22.11.2017 08:00:00 10,7 8,0 10,1 28 15 43 23 SSW 1005,3 10 0,0
22.11.2017 07:00:00 10,6 8,1 10,0 24 13 - - SSW 1005,1 10 0,0
22.11.2017 06:00:00 10,6 8,3 9,8 26 14 40 21 SSW 1005,3 10 0,0
22.11.2017 05:00:00 10,2 8,6 9,6 24 13 40 21 SSW 1005,4 10 0,4
22.11.2017 04:00:00 10,0 8,7 9,4 24 13 - - SSW 1005,9 5 0,2
22.11.2017 03:00:00 10,2 8,4 9,7 22 12 36 19 SSW 1006,3 6 0,0
22.11.2017 02:00:00 10,0 8,0 9,5 22 12 36 19 SSW 1006,5 10 0,0
22.11.2017 01:00:00 10,3 8,2 9,8 24 13 - - SSW 1007,1 10 0,0
22.11.2017 00:00:00 10,1 8,2 9,6 22 12 36 19 SSW 1007,3 10 0,0
21.11.2017 23:00:00 9,9 8,3 9,4 26 14 47 25 SSW 1007,5 10 0,0
21.11.2017 22:00:00 10,0 8,3 9,6 26 14 - - SSW 1008,1 10 0,0
21.11.2017 21:00:00 10,2 8,5 9,9 22 12 40 21 SSW 1008,4 10 0,0
21.11.2017 20:00:00 10,2 8,7 9,8 26 14 43 23 SSW 1008,8 10 0,0
21.11.2017 19:00:00 10,5 9,3 10,2 26 14 - - SW 1009,0 9 0,0
21.11.2017 18:00:00 10,9 9,8 10,6 24 13 36 19 SW 1009,3 8 0,0
21.11.2017 17:00:00 11,3 10,3 11,0 24 13 40 21 SW 1009,1 8 0,0
21.11.2017 16:00:00 11,8 10,7 11,4 22 12 - - WSW 1009,2 10 0,0
21.11.2017 15:00:00 11,7 10,8 11,3 26 14 50 27 WSW 1009,4 9 0,1
21.11.2017 14:00:00 11,5 11,2 11,3 26 14 43 23 WSW 1009,6 3,8 0,1
21.11.2017 13:00:00 11,6 11,4 11,6 22 12 - - WSW 1009,7 1,9 0,2
21.11.2017 12:00:00 11,6 11,4 11,5 21 11 32 18 SW 1010,0 2,0 0,2
21.11.2017 11:00:00 11,4 11,2 11,2 15 8 25 14 SW 1010,3 2,0 0,4
21.11.2017 10:00:00 11,1 10,9 11,0 13 7 - - SW 1010,5 4,5 0,5
21.11.2017 09:00:00 11,2 11,0 10,9 16 9 22 12 WSW 1010,7 2,3 0,4
21.11.2017 08:00:00 11,1 10,9 10,8 16 9 25 14 WSW 1010,6 3,5 0,3
21.11.2017 07:00:00 11,0 10,8 10,7 15 8 - - WSW 1010,2 3,5 0,7
21.11.2017 06:00:00 10,9 10,7 10,6 13 7 18 10 WSW 1010,4 4,6 0,1
21.11.2017 05:00:00 10,9 10,6 10,5 13 7 22 12 WSW 1010,4 5 0,0
21.11.2017 04:00:00 10,9 10,7 10,6 13 7 - - WSW 1010,5 5 0,0
21.11.2017 03:00:00 10,9 10,6 10,6 13 7 22 12 WSW 1010,4 6 0,0
21.11.2017 02:00:00 11,0 10,7 10,6 13 7 22 12 WSW 1010,3 8 0,2
21.11.2017 01:00:00 10,9 10,4 10,4 11 6 - - W 1010,3 9 0,0
21.11.2017 00:00:00 11,0 10,5 10,5 15 8 29 16 W 1009,8 10 0,1
20.11.2017 23:00:00 11,1 10,7 10,7 18 10 29 16 W 1009,6 6 0,3
20.11.2017 22:00:00 10,9 10,6 10,4 16 9 - - WSW 1009,5 3,1 0,1
20.11.2017 21:00:00 10,6 10,4 10,3 18 10 32 18 WSW 1009,4 5 1,4
20.11.2017 20:00:00 10,3 10,1 9,9 21 11 40 21 WSW 1009,3 6 1,1
20.11.2017 19:00:00 9,5 9,3 8,8 21 11 - - SW 1009,4 2,8 1,1
20.11.2017 18:00:00 8,2 8,0 7,7 22 12 32 18 SW 1009,5 3,2 1,0
20.11.2017 17:00:00 7,3 7,1 6,9 22 12 36 19 SSW 1010,2 3,4 0,6
20.11.2017 16:00:00 6,3 6,1 6,0 18 10 - - SSW 1011,2 2,6 0,2
20.11.2017 15:00:00 5,5 5,3 5,3 18 10 29 16 SSW 1012,2 4,0 0,4
20.11.2017 14:00:00 5,0 4,7 4,9 16 9 29 16 S 1013,5 3,4 0,8
20.11.2017 13:00:00 4,6 4,2 4,5 18 10 - - S 1014,6 5 0,9
20.11.2017 12:00:00 4,3 3,7 4,3 18 10 29 16 S 1016,2 9 0,8
20.11.2017 11:00:00 4,4 3,6 4,3 16 9 25 14 SSW 1017,2 10 0,0
20.11.2017 10:00:00 4,3 3,5 4,3 16 9 - - SSW 1017,6 10 0,4
20.11.2017 09:00:00 4,4 3,9 4,3 16 9 25 14 SSW 1018,4 7 0,6
20.11.2017 08:00:00 4,6 3,9 4,4 16 9 25 14 SW 1019,0 7 0,7
20.11.2017 07:00:00 4,9 3,5 4,4 15 8 - - SW 1018,9 10 0,0
20.11.2017 06:00:00 4,7 3,6 4,3 11 6 18 10 SW 1019,1 10 0,0
20.11.2017 05:00:00 4,7 3,5 4,3 13 7 22 12 SW 1019,2 10 0,0
20.11.2017 04:00:00 4,9 3,6 4,4 13 7 - - WSW 1019,6 10 0,0
20.11.2017 03:00:00 5,2 4,0 4,6 15 8 22 12 WSW 1019,7 10 0,0
20.11.2017 02:00:00 5,1 4,2 4,6 15 8 22 12 WSW 1020,2 10 0,0
20.11.2017 01:00:00 4,7 4,0 4,2 13 7 - - WSW 1020,5 10 0,0
20.11.2017 00:00:00 4,5 3,9 3,5 8 4 18 10 W 1020,7 10 0,0
19.11.2017 23:00:00 5,3 4,2 4,6 16 9 25 14 W 1021,0 10 0,0
19.11.2017 22:00:00 4,6 3,7 3,1 11 6 - - WSW 1020,8 10 0,0
19.11.2017 21:00:00 4,6 3,9 2,7 9 5 18 10 W 1020,3 10 0,0
19.11.2017 20:00:00 3,7 3,1 2,5 9 5 22 12 W 1019,9 10 0,0
19.11.2017 19:00:00 4,6 3,8 3,5 13 7 - - WSW 1019,4 10 0,0
19.11.2017 18:00:00 3,7 2,7 2,1 9 5 18 10 WSW 1019,0 10 0,0
19.11.2017 17:00:00 4,9 3,2 3,7 11 6 22 12 W 1018,5 10 0,0
19.11.2017 16:00:00 6,5 4,4 6,0 13 7 - - WNW 1018,2 10 0,1
19.11.2017 15:00:00 8,1 4,6 7,6 16 9 40 21 WNW 1017,7 10 0,0
19.11.2017 14:00:00 8,1 4,0 8,1 21 11 36 19 WNW 1017,5 10 0,0
19.11.2017 13:00:00 7,1 4,2 6,5 16 9 - - NW 1017,3 10 0,5
19.11.2017 12:00:00 8,0 4,5 7,5 24 13 40 21 WNW 1017,0 10 0,0
19.11.2017 11:00:00 7,1 4,3 7,2 16 9 32 18 WNW 1016,7 10 0,0
19.11.2017 10:00:00 5,5 3,7 5,1 13 7 - - W 1016,2 10 0,0
19.11.2017 09:00:00 4,1 2,3 3,1 11 6 29 16 W 1016,2 10 0,0
19.11.2017 08:00:00 3,3 2,4 1,2 11 6 29 16 W 1015,5 10 0,0
19.11.2017 07:00:00 3,1 2,6 2,2 13 7 - - SW 1015,2 10 0,1
19.11.2017 06:00:00 4,2 3,0 2,4 11 6 25 14 W 1015,1 10 0,3
19.11.2017 05:00:00 2,3 1,5 0,8 11 6 22 12 WSW 1014,9 10 0,0
19.11.2017 04:00:00 2,0 1,4 0,5 9 5 - - WSW 1014,8 10 0,0
19.11.2017 03:00:00 2,4 1,9 1,3 13 7 18 10 WSW 1014,7 10 0,0
19.11.2017 02:00:00 3,7 2,9 2,8 8 4 14 8 WSW 1014,9 10 0,0
19.11.2017 01:00:00 4,3 3,2 3,8 8 4 - - W 1015,0 10 0,0
19.11.2017 00:00:00 4,5 3,3 4,0 13 7 22 12 WSW 1014,9 10 0,5
18.11.2017 23:00:00 3,4 3,0 1,9 8 4 14 8 SW 1015,5 8 0,2
18.11.2017 22:00:00 4,7 4,1 4,2 8 4 - - WSW 1015,5 10 0,1
18.11.2017 21:00:00 4,9 4,3 4,5 5 3 14 8 W 1015,7 10 0,0
18.11.2017 20:00:00 4,6 4,1 4,0 11 6 18 10 WSW 1015,7 10 0,0
18.11.2017 19:00:00 5,1 3,9 4,8 13 7 - - W 1016,0 10 0,1
18.11.2017 18:00:00 5,6 3,9 5,1 13 7 32 18 WNW 1016,2 10 0,3
18.11.2017 17:00:00 5,8 5,1 5,5 13 7 22 12 W 1016,1 10 0,9
18.11.2017 16:00:00 6,0 5,3 5,8 15 8 - - WNW 1016,4 9 1,7
18.11.2017 15:00:00 8,7 5,6 8,9 24 13 36 19 W 1015,8 10 0,0
18.11.2017 14:00:00 7,5 6,3 7,6 18 10 47 25 WSW 1016,2 10 0,1
18.11.2017 13:00:00 6,6 5,4 6,5 28 15 - - WSW 1016,9 4,6 0,6
18.11.2017 12:00:00 6,8 4,4 6,6 29 16 47 25 SW 1017,3 10 0,0
18.11.2017 11:00:00 6,6 3,6 6,4 24 13 40 21 SW 1018,1 10 0,0
18.11.2017 10:00:00 5,9 3,1 5,6 22 12 - - SW 1018,5 10 0,0
18.11.2017 09:00:00 5,8 3,0 5,4 21 11 32 18 SW 1019,4 10 0,0
18.11.2017 08:00:00 5,7 2,9 5,3 18 10 25 14 SW 1019,7 10 0,0
18.11.2017 07:00:00 5,6 3,0 5,1 15 8 - - SW 1020,1 10 0,0
18.11.2017 06:00:00 5,7 2,8 5,2 15 8 22 12 SW 1020,6 10 0,0
18.11.2017 05:00:00 5,5 2,7 5,0 15 8 22 12 SW 1021,1 10 0,0
18.11.2017 04:00:00 5,4 2,8 4,9 13 7 - - SW 1021,9 10 0,0
18.11.2017 03:00:00 5,5 2,7 4,8 15 8 22 12 SW 1022,7 10 0,0
18.11.2017 02:00:00 4,8 3,0 4,3 11 6 18 10 SW 1023,4 10 0,0
18.11.2017 01:00:00 4,5 2,9 4,0 13 7 - - SW 1024,2 10 0,0
18.11.2017 00:00:00 4,3 2,6 2,6 13 7 18 10 SW 1024,5 10 0,0
17.11.2017 23:00:00 3,2 1,9 1,1 9 5 11 6 SSW 1025,0 10 0,0
17.11.2017 22:00:00 1,3 0,9 -1,2 4 2 - - - 1025,4 9 0,0
17.11.2017 21:00:00 2,0 1,6 0,0 4 2 7 4 - 1025,8 10 0,0
17.11.2017 20:00:00 2,8 2,4 0,6 4 2 7 4 W 1026,0 10 0,0
17.11.2017 19:00:00 3,2 2,5 1,1 4 2 - - - 1026,3 10 0,0
17.11.2017 18:00:00 4,8 3,5 2,6 5 3 11 6 WSW 1026,4 10 0,0
17.11.2017 17:00:00 5,4 3,3 3,8 5 3 7 4 WSW 1026,4 10 0,0
17.11.2017 16:00:00 7,9 4,4 7,6 5 3 - - SW 1026,5 10 0,0
17.11.2017 15:00:00 8,3 3,7 8,4 8 4 11 6 WSW 1026,8 10 0,0
17.11.2017 14:00:00 9,5 3,7 10,6 8 4 14 8 W 1027,3 10 0,0
17.11.2017 13:00:00 9,5 4,2 10,8 9 5 - - W 1027,4 10 0,0
17.11.2017 12:00:00 9,0 5,6 10,1 5 3 7 4 WSW 1027,7 10 0,0

tt = Température de l'air
td = dewpoint
tt 5cm = Température de l'air 5cm
ff = Vitesse du vent
fx = gusts
dd = Direction du vent
ppp = reduced air pressure
vv = visibility
rr = Quantités de précipitations

stations d'obs. à proximité